Regional Weather Roundup
Issued by NWS Jackson, KY

Home | Current Version | Previous Version | Text Only | Print | Product List | Glossary On
Versions: 1 2 3 4 5 6 7 8 9 10 11 12 13 14 15 16 17 18 19 20 21 22 23 24 25 26 27 28 29 30 31 32 33 34 35 36 37 38 39 40 41 42 43 44 45 46 47 48 49 50
000
ASUS43 KJKL 300310
RWRJKL

EAST KENTUCKY HOURLY WEATHER ROUNDUP
NATIONAL WEATHER SERVICE JACKSON KY
1100 PM EDT FRI JUL 29 2016

NOTE: "FAIR" INDICATES FEW OR NO CLOUDS BELOW 12,000 FEET WITH
NO SIGNIFICANT WEATHER AND/OR OBSTRUCTIONS TO VISIBILITY.

* THESE REPORTS ARE NOT UNDER NWS QUALITY CONTROL AND MAY NOT
  REPORT WEATHER SUCH AS PRECIPITATION AND FOG.

KYZ079-080-083-085-087-088-110-112-115-119-120-300400
...EASTERN KENTUCKY...

CITY           SKY/WX    TMP DP  RH WIND       PRES   REMARKS
JACKSON        CLEAR     71  69  93 CALM      29.99R
LONDON         CLEAR     72  68  87 SW5       30.00R
SOMERSET*      CLOUDY    70  70 100 S3        30.01R
MONTICELLO*    FOG      N/A N/A N/A NE7       30.01R VSB 1/2
WILLIAMSBURG*  CLEAR     70  70 100 SE3       30.01S
MIDDLESBORO*   MOCLDY    70  69  97 W5        30.03R
HARLAN APT*    CLOUDY    70  68  94 CALM      30.03S
PIKE CO APT*   FOG       69  69 100 SE3       30.00S VSB 3/4
MOREHEAD APT*  PTCLDY    73  72  94 CALM      29.98R
ASHLAND*       PTCLDY    75  73  94 CALM      29.93R
$$

KYZ035-036-041-042-044-050-067-078-099-300400
...CENTRAL KENTUCKY...

CITY           SKY/WX    TMP DP  RH WIND       PRES   REMARKS
MT STERLING*   PTCLDY    70  70 100 SW3       29.99R
FLEMING/MASON* MOCLDY    73  70  88 SW5       29.97R
DANVILLE*      CLOUDY    72  70  94 SW5       29.99R
LEXINGTON      CLOUDY    74  71  91 W5        29.97R
FRANKFORT      CLOUDY    73  69  87 S5        29.95R
LOUISVILLE     CLOUDY    77  74  90 SW3       29.94R
LEBANON*       LGT RAIN  73  72  94 CALM      29.98R
GLASGOW*       CLOUDY    74  73  95 W3        29.96F
BOWLING GREEN  PTCLDY    76  72  87 SW3       29.97R
$$

KYZ091>093-OHZ055-061-077-WVZ005-015-034-035-042-300400
...SOUTHERN OHIO/WEST VIRGINIA...

CITY           SKY/WX    TMP DP  RH WIND       PRES   REMARKS
COVINGTON      CLOUDY    72  71  97 N6        29.95S
COLUMBUS       CLOUDY    76  68  76 E5        29.94R
DAYTON         PTCLDY    70  70 100 N6        29.97R FOG
WILMINGTON     CLOUDY    69  68  96 SW3       29.96R
HUNTINGTON       N/A     74  71  91 S5        29.95R
CHARLESTON     MOCLDY    76  70  82 S3        29.97R
PINEVILLE*     CLOUDY    72  69  90 MISG      30.08R FOG
BECKLEY          N/A     67  66  97 S3        30.06R
BLUEFIELD        N/A     67  65  93 S3        30.09R
LOGAN CO APT*  MOCLDY    72  70  94 CALM      30.00R
$$

VAZ002-007-008-TNZ017-027-036-066-071-300400
...SOUTHWEST VIRGINIA/EAST TENNESSEE...

CITY           SKY/WX    TMP DP  RH WIND       PRES   REMARKS
WISE*          FOG       66  64  94 S5        30.10R VSB<1/4
JONESVILLE*    FOG       68  68 100 CALM      30.07R VSB 1/4
ABINGDON*        N/A     69  69  99 CALM      30.06S FOG
BRISTOL        MOCLDY    70  68  93 CALM      30.04R
MORRISTOWN*    PTCLDY    72  72 100 CALM      30.04R
SEVIERVILLE*   MOCLDY    72  70  94 CALM      30.03R
KNOXVILLE      PTCLDY    74  72  93 CALM      30.02R
OAK RIDGE      CLEAR     76  71  85 CALM      30.04R
CROSSVILLE     PTCLDY    72  68  87 CALM      30.07R
NASHVILLE      CLOUDY    80  73  79 SW3       29.98R THUNDER
$$

...KEY TO REMARKS...
VSB - VISIBILITY IN MILES
WCI - WIND CHILL INDEX
HX  - HEAT INDEX

$$



USA.gov is the U.S. government's official web portal to all federal, state and local government web resources and services.